DW5852 Weather Reports


Display with metric or nautical units.
time (UTC)temp
F
wind
direction
speed
MPH
gust
MPH
rain 1hr
in
rain 24hr
in
rain mn
in
humidity
%
barometer
mb
20260905191236 81 153 0.0 0.0 0.00 0.00 0.00 36 1034.9
20260905190736 82 276 0.0 0.0 0.00 0.00 0.00 35 1034.9
20260905190236 83 238 0.0 6.0 0.00 0.00 0.00 35 1035.0
20260905185736 81 155 1.0 1.0 0.00 0.00 0.00 38 1034.9
20260905185233 81 107 0.0 3.0 0.00 0.00 0.00 37 1034.9
20260905184736 81 152 0.0 5.0 0.00 0.00 0.00 37 1035.0
20260905184236 82 140 0.0 9.0 0.00 0.00 0.00 36 1034.9
20260905183736 82 168 0.0 0.0 0.00 0.00 0.00 36 1034.9
20260905183233 81 181 0.0 0.0 0.00 0.00 0.00 39 1034.9
20260905182733 80 253 0.0 0.0 0.00 0.00 0.00 39 1034.9
20260905182233 80 256 0.0 0.0 0.00 0.00 0.00 38 1035.0
20260905181736 81 107 0.0 3.0 0.00 0.00 0.00 38 1034.9
20260905181236 80 152 0.0 6.0 0.00 0.00 0.00 39 1034.9
20260905180733 79 15 0.0 4.0 0.00 0.00 0.00 39 1035.0
20260905180236 80 73 0.0 0.0 0.00 0.00 0.00 38 1035.0
20260905175736 79 143 0.0 0.0 0.00 0.00 0.00 41 1035.1
20260905175233 78 215 0.0 5.0 0.00 0.00 0.00 42 1035.0
20260905174736 77 98 5.0 10.0 0.00 0.00 0.00 42 1034.8
20260905174236 78 110 0.0 8.0 0.00 0.00 0.00 42 1034.9
20260905173736 78 136 0.0 6.0 0.00 0.00 0.00 42 1034.9
20260905173233 79 86 0.0 9.0 0.00 0.00 0.00 41 1034.8
20260905172733 80 94 0.0 0.0 0.00 0.00 0.00 39 1034.9
20260905172236 80 173 0.0 0.0 0.00 0.00 0.00 40 1034.7
20260905171733 80 162 0.0 0.0 0.00 0.00 0.00 39 1034.7
20260905171233 79 108 0.0 0.0 0.00 0.00 0.00 42 1034.6
20260905170736 78 84 0.0 0.0 0.00 0.00 0.00 41 1034.6
20260905170236 78 118 0.0 0.0 0.00 0.00 0.00 41 1034.5
20260905165736 79 163 0.0 0.0 0.00 0.00 0.00 39 1034.5
20260905165233 79 271 0.0 0.0 0.00 0.00 0.00 39 1034.5
20260905164736 79 191 0.0 0.0 0.00 0.00 0.00 41 1034.5
20260905164233 79 120 0.0 0.0 0.00 0.00 0.00 39 1034.4
20260905163733 78 257 0.0 0.0 0.00 0.00 0.00 40 1034.3
20260905163236 78 255 0.0 0.0 0.00 0.00 0.00 42 1034.3
20260905162736 78 305 0.0 0.0 0.00 0.00 0.00 41 1034.2
20260905162233 78 150 0.0 0.0 0.00 0.00 0.00 44 1034.1
20260905161733 77 150 0.0 0.0 0.00 0.00 0.00 45 1034.2
20260905161236 75 156 0.0 0.0 0.00 0.00 0.00 47 1034.1
20260905160736 74 139 0.0 0.0 0.00 0.00 0.00 48 1034.1
20260905160236 73 75 0.0 0.0 0.00 0.00 0.00 49 1034.1
20260905155736 74 110 0.0 0.0 0.00 0.00 0.00 47 1034.1
20260905155236 75 172 0.0 0.0 0.00 0.00 0.00 48 1034.0
20260905154733 74 172 0.0 0.0 0.00 0.00 0.00 50 1034.0
20260905154236 73 172 0.0 0.0 0.00 0.00 0.00 52 1034.0
20260905153733 72 122 0.0 0.0 0.00 0.00 0.00 54 1034.0
20260905153233 71 122 0.0 0.0 0.00 0.00 0.00 55 1034.0
20260905152736 70 90 0.0 0.0 0.00 0.00 0.00 56 1034.0
20260905152233 70 68 0.0 0.0 0.00 0.00 0.00 56 1034.1
20260905151733 69 103 0.0 0.0 0.00 0.00 0.00 57 1034.1
20260905151236 70 56 0.0 0.0 0.00 0.00 0.00 55 1034.1
20260905150733 70 101 0.0 0.0 0.00 0.00 0.00 56 1033.9
20260905150233 69 139 0.0 0.0 0.00 0.00 0.00 57 1033.9
20260905145736 69 101 0.0 0.0 0.00 0.00 0.00 57 1033.9
20260905145236 70 55 0.0 0.0 0.00 0.00 0.00 55 1033.8
20260905144736 69 102 0.0 0.0 0.00 0.00 0.00 56 1033.9
20260905144233 69 25 0.0 0.0 0.00 0.00 0.00 56 1033.9
20260905143733 69 78 0.0 0.0 0.00 0.00 0.00 56 1033.8
20260905143236 69 101 0.0 0.0 0.00 0.00 0.00 56 1033.7
20260905142733 69 32 0.0 0.0 0.00 0.00 0.00 56 1033.8
20260905142233 68 95 0.0 0.0 0.00 0.00 0.00 58 1033.8
20260905141736 68 18 0.0 0.0 0.00 0.00 0.00 57 1033.8
20260905141236 67 18 0.0 0.0 0.00 0.00 0.00 60 1033.7
20260905140736 67 18 0.0 0.0 0.00 0.00 0.00 60 1033.7
20260905140233 67 18 0.0 0.0 0.00 0.00 0.00 59 1033.6
20260905135733 67 73 0.0 0.0 0.00 0.00 0.00 59 1033.6
20260905135236 66 112 0.0 0.0 0.00 0.00 0.00 60 1033.5
20260905134733 66 74 0.0 0.0 0.00 0.00 0.00 60 1033.5
20260905134233 67 73 0.0 0.0 0.00 0.00 0.00 58 1033.5
20260905133736 67 68 0.0 0.0 0.00 0.00 0.00 59 1033.5
20260905133233 67 266 0.0 0.0 0.00 0.00 0.00 60 1033.4
20260905132733 66 267 0.0 0.0 0.00 0.00 0.00 60 1033.4
20260905132236 66 266 0.0 0.0 0.00 0.00 0.00 61 1033.4
20260905131733 65 266 0.0 0.0 0.00 0.00 0.00 63 1033.3
20260905131236 63 267 0.0 0.0 0.00 0.00 0.00 66 1033.2
20260905130736 62 266 0.0 0.0 0.00 0.00 0.00 68 1033.1
20260905130233 62 267 0.0 0.0 0.00 0.00 0.00 68 1033.2
20260905125736 61 266 0.0 0.0 0.00 0.00 0.00 69 1033.1
20260905125236 62 266 0.0 0.0 0.00 0.00 0.00 68 1033.2
20260905124733 61 267 0.0 0.0 0.00 0.00 0.00 69 1033.1
20260905124233 61 267 0.0 0.0 0.00 0.00 0.00 70 1033.2
20260905123733 61 267 0.0 0.0 0.00 0.00 0.00 70 1033.1
20260905123233 61 266 0.0 0.0 0.00 0.00 0.00 69 1033.2
20260905122733 61 266 0.0 0.0 0.00 0.00 0.00 69 1033.2
20260905122233 61 266 0.0 0.0 0.00 0.00 0.00 70 1033.2
20260905121733 60 267 0.0 0.0 0.00 0.00 0.00 71 1033.2
20260905121236 60 267 0.0 0.0 0.00 0.00 0.00 71 1033.3
20260905120733 60 267 0.0 0.0 0.00 0.00 0.00 72 1033.3
20260905120236 61 266 0.0 0.0 0.00 0.00 0.00 71 1033.3
20260905115733 62 266 0.0 0.0 0.00 0.00 0.00 69 1033.3
20260905115233 62 266 0.0 0.0 0.00 0.00 0.00 68 1033.4
20260905114736 62 266 0.0 0.0 0.00 0.00 0.00 69 1033.3
20260905114236 61 266 0.0 0.0 0.00 0.00 0.00 70 1033.4
20260905113733 61 267 0.0 0.0 0.00 0.00 0.00 70 1033.4
20260905113233 62 266 0.0 0.0 0.00 0.00 0.00 69 1033.6
20260905112736 62 266 0.0 0.0 0.00 0.00 0.00 68 1033.6
20260905112236 63 267 0.0 0.0 0.00 0.00 0.00 68 1033.7
20260905111736 63 267 0.0 0.0 0.00 0.00 0.00 67 1033.8
20260905111233 63 266 0.0 0.0 0.00 0.00 0.00 68 1033.9
20260905110736 63 266 0.0 0.0 0.00 0.00 0.00 68 1033.9
20260905110236 63 267 0.0 0.0 0.00 0.00 0.00 68 1033.8
20260905105736 63 266 0.0 0.0 0.00 0.00 0.00 68 1033.9
20260905105236 63 266 0.0 0.0 0.00 0.00 0.00 68 1033.9
20260905104736 63 267 0.0 0.0 0.00 0.00 0.00 68 1034.0
20260905104236 62 266 0.0 0.0 0.00 0.00 0.00 68 1034.0
20260905103733 63 266 0.0 0.0 0.00 0.00 0.00 69 1034.1
20260905103236 63 267 0.0 0.0 0.00 0.00 0.00 68 1034.1
20260905102733 63 266 0.0 0.0 0.00 0.00 0.00 68 1034.2
20260905102233 63 267 0.0 0.0 0.00 0.00 0.00 68 1034.3
20260905101736 63 266 0.0 0.0 0.00 0.00 0.00 69 1034.3
20260905101233 63 267 0.0 0.0 0.00 0.00 0.00 68 1034.4
20260905100736 62 266 0.0 0.0 0.00 0.00 0.00 68 1034.3
20260905100236 62 266 0.0 0.0 0.00 0.00 0.00 69 1034.4
20260905095736 63 266 0.0 0.0 0.00 0.00 0.00 68 1034.4
20260905095236 63 267 0.0 0.0 0.00 0.00 0.00 68 1034.5
20260905094733 63 266 0.0 0.0 0.00 0.00 0.00 68 1034.5
20260905094233 63 267 0.0 0.0 0.00 0.00 0.00 69 1034.5
20260905093733 63 266 0.0 0.0 0.00 0.00 0.00 69 1034.6
20260905093236 63 266 0.0 0.0 0.00 0.00 0.00 69 1034.7
20260905092736 63 266 0.0 0.0 0.00 0.00 0.00 69 1034.8
20260905092236 62 266 0.0 0.0 0.00 0.00 0.00 70 1034.8
20260905091733 61 266 0.0 0.0 0.00 0.00 0.00 72 1034.9
20260905091233 60 266 0.0 0.0 0.00 0.00 0.00 73 1035.0
20260905090736 60 266 0.0 0.0 0.00 0.00 0.00 73 1035.0
20260905090236 60 267 0.0 0.0 0.00 0.00 0.00 73 1035.0
20260905085736 60 266 0.0 0.0 0.00 0.00 0.00 73 1035.1
20260905085233 60 266 0.0 0.0 0.00 0.00 0.00 73 1035.1
20260905084733 60 267 0.0 0.0 0.00 0.00 0.00 73 1035.2
20260905084233 60 266 0.0 0.0 0.00 0.00 0.00 73 1035.2
20260905083736 60 266 0.0 0.0 0.00 0.00 0.00 72 1035.3
20260905083233 61 266 0.0 0.0 0.00 0.00 0.00 71 1035.5
20260905082733 61 266 0.0 0.0 0.00 0.00 0.00 71 1035.6
20260905082236 62 267 0.0 0.0 0.00 0.00 0.00 70 1035.7
20260905081736 62 266 0.0 0.0 0.00 0.00 0.00 69 1035.7
20260905081236 63 267 0.0 0.0 0.00 0.00 0.00 69 1035.8
20260905080736 63 266 0.0 0.0 0.00 0.00 0.00 68 1035.8
20260905080233 63 266 0.0 0.0 0.00 0.00 0.00 68 1035.8
20260905075733 63 266 0.0 0.0 0.00 0.00 0.00 68 1035.8
20260905075236 63 266 0.0 0.0 0.00 0.00 0.00 67 1036.1
20260905074733 63 266 0.0 0.0 0.00 0.00 0.00 66 1036.1
20260905074236 64 266 0.0 0.0 0.00 0.00 0.00 66 1036.2
20260905073733 64 267 0.0 0.0 0.00 0.00 0.00 66 1036.2
20260905073236 64 266 0.0 0.0 0.00 0.00 0.00 66 1036.3
20260905072736 64 267 0.0 0.0 0.00 0.00 0.00 65 1036.3
20260905072233 64 266 0.0 0.0 0.00 0.00 0.00 65 1036.2
20260905071733 64 267 0.0 0.0 0.00 0.00 0.00 64 1036.3
20260905071233 64 266 0.0 0.0 0.00 0.00 0.00 65 1036.4
20260905070736 64 266 0.0 0.0 0.00 0.00 0.00 67 1036.4
20260905070233 64 266 0.0 0.0 0.00 0.00 0.00 68 1036.5
20260905065736 63 266 0.0 0.0 0.00 0.00 0.00 70 1036.4
20260905065236 63 266 0.0 0.0 0.00 0.00 0.00 70 1036.5
20260905064733 63 266 0.0 0.0 0.00 0.00 0.00 70 1036.5
20260905064236 62 266 0.0 0.0 0.00 0.00 0.00 70 1036.7
20260905063736 62 267 0.0 0.0 0.00 0.00 0.00 70 1036.8
20260905063233 62 267 0.0 0.0 0.00 0.00 0.00 69 1036.7
20260905062733 62 267 0.0 0.0 0.00 0.00 0.00 69 1036.8
20260905062236 62 266 0.0 0.0 0.00 0.00 0.00 71 1036.9
20260905061733 62 266 0.0 0.0 0.00 0.00 0.00 72 1037.0
20260905061233 62 267 0.0 0.0 0.00 0.00 0.00 72 1036.9
20260905060736 62 266 0.0 0.0 0.00 0.00 0.00 72 1036.9
20260905060233 62 266 0.0 0.0 0.00 0.00 0.00 72 1037.0
20260905055736 63 267 0.0 0.0 0.00 0.00 0.00 72 1037.1
20260905055233 63 266 0.0 0.0 0.00 0.00 0.00 72 1037.0
20260905054736 63 266 0.0 0.0 0.00 0.00 0.00 72 1037.0
20260905054233 63 311 0.0 0.0 0.00 0.00 0.00 73 1037.0
20260905053733 63 310 0.0 0.0 0.00 0.00 0.00 74 1037.1
20260905053233 63 322 0.0 0.0 0.00 0.00 0.00 73 1037.2
20260905052736 63 322 0.0 0.0 0.00 0.00 0.00 72 1037.3
20260905052233 63 321 0.0 0.0 0.00 0.00 0.00 72 1037.5
20260905051733 63 322 0.0 0.0 0.00 0.00 0.00 73 1037.6
20260905051233 63 322 0.0 0.0 0.00 0.00 0.00 73 1037.6
20260905050733 63 321 0.0 0.0 0.00 0.00 0.00 73 1037.7
20260905050236 63 322 0.0 0.0 0.00 0.00 0.00 73 1037.8
20260905045736 63 321 0.0 0.0 0.00 0.00 0.00 73 1037.9
20260905045236 63 321 0.0 0.0 0.00 0.00 0.00 72 1037.9
20260905044736 63 321 0.0 0.0 0.00 0.00 0.00 71 1038.0
20260905044236 63 322 0.0 0.0 0.00 0.00 0.00 70 1038.2
20260905043736 64 321 0.0 0.0 0.00 0.00 0.00 71 1038.2
20260905043233 64 321 0.0 0.0 0.00 0.00 0.00 71 1038.3
20260905042733 64 322 0.0 0.0 0.00 0.00 0.00 71 1038.4
20260905042233 64 322 0.0 0.0 0.00 0.00 0.00 71 1038.5
20260905041733 64 322 0.0 0.0 0.00 0.00 0.00 69 1038.6
20260905041233 65 321 0.0 0.0 0.00 0.00 0.00 69 1038.6
20260905040736 65 322 0.0 0.0 0.00 0.00 0.00 69 1038.6
20260905040233 65 322 0.0 0.0 0.00 0.00 0.00 69 1038.7
20260905035733 66 322 0.0 0.0 0.00 0.00 0.00 67 1038.7
20260905035236 66 322 0.0 0.0 0.00 0.00 0.00 67 1038.8
20260905034733 66 322 0.0 0.0 0.00 0.00 0.00 67 1038.7
20260905034236 66 322 0.0 0.0 0.00 0.00 0.00 67 1038.8
20260905033736 66 322 0.0 0.0 0.00 0.00 0.00 67 1038.8
20260905033233 66 321 0.0 0.0 0.00 0.00 0.00 66 1038.8
20260905032736 66 322 0.0 0.0 0.00 0.00 0.00 66 1038.7
20260905032233 66 322 0.0 0.0 0.00 0.00 0.00 66 1038.8
20260905031733 67 322 0.0 0.0 0.00 0.00 0.00 65 1038.8
20260905031236 67 322 0.0 0.0 0.00 0.00 0.00 66 1038.8
20260905030736 67 321 0.0 0.0 0.00 0.00 0.00 66 1038.7
20260905030233 67 322 0.0 0.0 0.00 0.00 0.00 65 1038.6
20260905025733 67 321 0.0 0.0 0.00 0.00 0.00 65 1038.6
20260905025236 67 321 0.0 0.0 0.00 0.00 0.00 65 1038.6
20260905024736 67 322 0.0 0.0 0.00 0.00 0.00 65 1038.6
20260905024236 67 93 0.0 0.0 0.00 0.00 0.00 64 1038.5
20260905023733 67 94 0.0 0.0 0.00 0.00 0.00 64 1038.3
20260905023236 68 93 0.0 0.0 0.00 0.00 0.00 63 1038.3
20260905022733 68 94 0.0 0.0 0.00 0.00 0.00 62 1038.1
20260905022233 68 93 0.0 0.0 0.00 0.00 0.00 62 1037.9
20260905021736 68 93 0.0 0.0 0.00 0.00 0.00 62 1037.7
20260905021233 68 74 0.0 0.0 0.00 0.00 0.00 61 1037.7
20260905020733 69 90 0.0 6.0 0.00 0.00 0.00 60 1037.5
20260905020236 69 107 0.0 0.0 0.00 0.00 0.00 59 1037.6
20260905015733 70 104 0.0 8.0 0.00 0.00 0.00 56 1037.5
20260905015233 70 67 4.0 12.0 0.00 0.00 0.00 54 1037.5
20260905014733 70 77 0.0 0.0 0.00 0.00 0.00 54 1037.3
20260905014233 70 256 0.0 0.0 0.00 0.00 0.00 54 1037.1
20260905013736 70 256 0.0 0.0 0.00 0.00 0.00 54 1037.0
20260905013233 70 256 0.0 0.0 0.00 0.00 0.00 53 1036.9
20260905012733 70 256 0.0 0.0 0.00 0.00 0.00 53 1036.9
20260905012233 70 256 0.0 0.0 0.00 0.00 0.00 53 1036.8
20260905011736 70 256 0.0 0.0 0.00 0.00 0.00 53 1036.8
20260905011233 71 256 0.0 0.0 0.00 0.00 0.00 52 1036.7
20260905010736 71 256 0.0 0.0 0.00 0.00 0.00 51 1036.7
20260905010236 71 256 0.0 0.0 0.00 0.00 0.00 50 1036.7
20260905005736 71 256 0.0 0.0 0.00 0.00 0.00 50 1036.6
20260905005236 72 256 0.0 0.0 0.00 0.00 0.00 50 1036.6
20260905004733 72 255 0.0 0.0 0.00 0.00 0.00 49 1036.5
20260905004236 72 253 0.0 0.0 0.00 0.00 0.00 49 1036.4
20260905003736 72 253 0.0 0.0 0.00 0.02 0.00 49 1036.3
20260905003236 72 232 0.0 0.0 0.00 0.04 0.00 48 1036.3
20260905002736 72 302 0.0 0.0 0.00 0.09 0.00 49 1036.3
20260905002236 73 255 0.0 8.0 0.00 0.09 0.00 48 1036.2
20260905001733 73 243 7.0 7.0 0.00 0.09 0.00 46 1036.2
20260905001236 74 245 0.0 8.0 0.00 0.09 0.00 45 1036.3
20260905000736 74 240 0.0 8.0 0.00 0.09 0.00 45 1036.0
20260905000233 75 248 7.0 16.0 0.00 0.09 0.00 44 1036.0
20260904235733 77 250 5.0 12.0 0.00 0.09 0.00 40 1035.8
20260904235236 77 233 0.0 0.0 0.00 0.09 0.00 38 1035.6
20260904234736 78 210 0.0 7.0 0.00 0.09 0.00 39 1035.5
20260904234236 78 200 0.0 0.0 0.00 0.09 0.00 38 1035.3
20260904233736 78 159 0.0 0.0 0.00 0.09 0.00 38 1035.3
20260904233236 78 163 0.0 0.0 0.00 0.09 0.00 39 1035.1
20260904232736 78 167 0.0 0.0 0.00 0.09 0.00 39 1035.1
20260904232236 78 170 0.0 0.0 0.00 0.09 0.00 40 1035.0
20260904231733 78 133 0.0 0.0 0.00 0.09 0.00 40 1035.1
20260904231236 78 43 0.0 0.0 0.00 0.09 0.00 40 1034.9
20260904230733 78 108 0.0 0.0 0.00 0.09 0.00 40 1034.8
20260904230236 79 85 0.0 0.0 0.00 0.09 0.00 40 1034.8
20260904225733 79 80 0.0 7.0 0.00 0.09 0.00 40 1034.7
20260904225236 79 77 0.0 0.0 0.00 0.09 0.00 39 1034.7
20260904224736 80 185 0.0 0.0 0.00 0.09 0.00 38 1034.6
20260904224233 80 79 0.0 0.0 0.00 0.09 0.00 38 1034.6
20260904223733 80 273 0.0 0.0 0.00 0.09 0.00 38 1034.5
20260904223233 81 25 0.0 3.0 0.00 0.09 0.00 38 1034.4
20260904222736 81 74 0.0 6.0 0.00 0.09 0.00 36 1034.4
20260904222233 81 41 0.0 0.0 0.00 0.09 0.00 37 1034.4
20260904221733 82 16 0.0 0.0 0.00 0.09 0.00 38 1034.3
20260904221233 81 263 0.0 0.0 0.00 0.09 0.00 38 1034.4
20260904220733 80 15 0.0 0.0 0.00 0.09 0.00 38 1034.5
20260904220236 81 357 0.0 0.0 0.00 0.09 0.00 38 1034.4
20260904215736 80 110 0.0 0.0 0.00 0.09 0.00 40 1034.3
20260904215236 80 270 0.0 8.0 0.00 0.09 0.00 41 1034.2
20260904214736 80 340 0.0 4.0 0.00 0.09 0.00 41 1034.3
20260904214233 79 321 0.0 0.0 0.00 0.09 0.00 42 1034.3
20260904213733 79 253 0.0 5.0 0.00 0.09 0.00 42 1034.4
20260904213233 79 330 3.0 6.0 0.00 0.09 0.00 43 1034.4
20260904212736 78 252 0.0 0.0 0.00 0.09 0.00 42 1034.5
20260904212236 78 257 0.0 0.0 0.00 0.09 0.00 42 1034.4
20260904211733 78 66 0.0 1.0 0.00 0.09 0.00 42 1034.4
20260904211233 79 279 0.0 4.0 0.00 0.09 0.00 41 1034.4
20260904210733 79 45 0.0 3.0 0.00 0.09 0.00 40 1034.4
20260904210233 80 244 0.0 10.0 0.00 0.09 0.00 39 1034.4
20260904205733 80 79 4.0 11.0 0.00 0.09 0.00 40 1034.4
20260904205236 80 8 0.0 0.0 0.00 0.09 0.00 39 1034.4
20260904204736 79 232 0.0 0.0 0.00 0.09 0.00 40 1034.5
20260904204233 80 188 0.0 0.0 0.00 0.09 0.00 39 1034.5
20260904203736 79 156 0.0 0.0 0.00 0.09 0.00 40 1034.6
20260904203233 79 222 0.0 0.0 0.00 0.09 0.00 40 1034.6
20260904202736 80 159 0.0 0.0 0.00 0.09 0.00 39 1034.6
20260904202233 79 153 0.0 0.0 0.00 0.09 0.00 40 1034.7
20260904201736 79 264 0.0 0.0 0.00 0.09 0.00 41 1034.7
20260904201233 79 63 0.0 0.0 0.00 0.09 0.00 40 1034.7
20260904200733 81 97 0.0 0.0 0.00 0.09 0.00 38 1034.7
20260904200236 81 107 0.0 8.0 0.00 0.09 0.00 39 1034.7
20260904195736 81 297 0.0 7.0 0.00 0.09 0.00 38 1034.8
20260904195233 81 151 0.0 9.0 0.00 0.09 0.00 40 1034.7
20260904194733 80 160 3.0 8.0 0.00 0.09 0.00 41 1034.7
20260904194233 79 236 0.0 0.0 0.00 0.09 0.00 40 1034.8
20260904193736 79 260 0.0 0.0 0.00 0.09 0.00 40 1034.7
20260904193236 77 160 0.0 0.0 0.00 0.09 0.00 42 1034.7
20260904192733 77 108 0.0 4.0 0.00 0.09 0.00 42 1034.8
20260904192233 76 63 0.0 6.0 0.00 0.09 0.00 42 1034.7
20260904191733 76 99 0.0 5.0 0.00 0.09 0.00 43 1034.8